Temperature
5 6 6 6 6 7 7 7 8 8 8 8 8 9 9 9 9 9 9 9 10 10 9 9 9 10 9 9 9 9 9 9 9 9 10 10 10 10 10 10 9 9 9
4 5 5 5 6 6 6 6 7 7 8 8 8 8 8 8 8 9 9 9 9 9 9 9 9 9 9 9 9 8 8 8 8 8 9 9 9 9 9 9 9 9 9
4 4 4 4 5 5 6 6 6 6 7 7 7 7 7 8 8 8 8 8 8 8 8 8 8 8 8 8 8 8 8 8 8 8 8 8 8 8 8 8 8 8 8
3 4 4 4 4 4 5 5 5 5 6 6 6 6 6 7 7 7 7 7 7 7 7 7 7 7 7 7 7 7 7 7 7 7 7 7 7 7 7 7 7 7 7
3 3 3 3 3 4 4 4 4 5 5 5 5 5 6 6 6 6 6 6 6 6 6 6 7 6 6 6 6 6 6 6 6 6 6 6 6 6 6 6 6 6 6
3 3 3 3 3 3 3 3 4 4 4 4 4 4 4 5 5 5 5 5 5 5 5 6 6 6 5 5 5 5 5 5 5 5 4 5 5 5 5 5 5 5 5
2 2 2 2 2 2 2 2 3 3 3 3 3 3 3 3 3 4 4 4 4 4 4 4 4 5 4 4 4 4 4 4 4 4 4 4 4 4 4 4 4 4 4
2 2 2 2 2 2 2 2 2 2 2 2 2 2 2 2 2 3 3 3 3 3 3 3 3 3 3 3 3 3 3 3 3 3 3 3 3 4 4 4 4 3 3
1 1 1 1 1 1 1 1 1 1 1 1 1 1 1 1 1 1 1 2 2 2 2 2 2 2 2 2 2 2 2 2 2 2 2 2 3 3 3 3 2 2 2
1 1 1 1 1 1 0 0 0 0 0 0 0 0 0 0 0 0 0 0 0 0 1 1 1 1 1 1 1 1 1 1 1 1 1 2 2 2 2 2 2 2 2
0 0 0 0 0 -0 -0 -0 -0 -0 -0 -0 -0 -1 -1 -1 -1 -1 -1 -1 -1 -1 -1 -1 -0 -0 0 0 -0 -0 -0 -0 -0 0 0 0 1 1 1 1 1 1 2
-0 -0 -0 -1 -1 -1 -1 -1 -1 -1 -1 -1 -2 -2 -2 -2 -2 -2 -2 -2 -2 -2 -2 -2 -2 -1 -1 -1 -1 -1 -1 -1 -1 -1 -1 -1 -1 -0 0 0 0 0 1
-1 -1 -1 -1 -1 -1 -2 -2 -2 -2 -2 -3 -3 -3 -3 -3 -3 -3 -3 -3 -3 -3 -3 -3 -3 -2 -2 -2 -2 -2 -2 -2 -2 -2 -2 -2 -2 -1 -1 -1 -1 -0 -0
-1 -1 -1 -1 -2 -2 -2 -2 -2 -3 -3 -3 -4 -4 -4 -4 -4 -4 -4 -4 -4 -4 -4 -4 -3 -3 -3 -3 -3 -3 -3 -3 -3 -3 -3 -3 -2 -2 -2 -2 -1 -1 -1
-2 -2 -2 -2 -2 -2 -3 -3 -3 -4 -4 -4 -5 -5 -5 -5 -5 -5 -5 -5 -5 -5 -5 -5 -4 -4 -4 -4 -4 -4 -4 -4 -4 -4 -4 -4 -4 -3 -3 -3 -2 -2 -2
-2 -2 -2 -3 -3 -3 -3 -3 -4 -4 -4 -5 -5 -5 -6 -6 -6 -6 -5 -5 -5 -5 -5 -5 -5 -5 -5 -5 -5 -5 -5 -5 -5 -5 -5 -5 -4 -4 -4 -3 -3 -3 -3
-2 -3 -3 -3 -3 -4 -4 -4 -4 -4 -5 -5 -5 -6 -6 -6 -6 -6 -6 -5 -5 -6 -6 -6 -6 -6 -6 -6 -6 -6 -6 -6 -6 -5 -5 -5 -5 -5 -4 -4 -4 -4 -3
-3 -3 -4 -4 -4 -4 -5 -5 -5 -6 -6 -6 -6 -6 -6 -6 -6 -6 -6 -6 -6 -6 -6 -7 -7 -7 -7 -7 -6 -6 -6 -6 -6 -6 -6 -6 -5 -5 -5 -5 -4 -4 -4
-3 -4 -4 -4 -5 -5 -5 -6 -6 -6 -7 -7 -6 -6 -6 -6 -7 -7 -7 -7 -7 -7 -7 -7 -7 -7 -7 -7 -7 -7 -7 -7 -7 -6 -6 -6 -6 -6 -5 -5 -5 -5 -4
-4 -4 -5 -5 -5 -6 -6 -6 -7 -7 -7 -7 -8 -8 -7 -7 -7 -7 -7 -8 -8 -8 -8 -8 -8 -8 -8 -8 -7 -7 -7 -7 -7 -7 -7 -6 -6 -6 -6 -6 -5 -5 -5
-4 -5 -5 -5 -6 -6 -7 -7 -8 -8 -8 -8 -8 -8 -8 -8 -8 -8 -8 -8 -8 -8 -8 -8 -8 -8 -8 -8 -8 -8 -8 -7 -7 -7 -7 -7 -6 -6 -6 -6 -6 -5 -5
-5 -5 -6 -6 -6 -7 -7 -8 -8 -8 -8 -8 -8 -8 -8 -9 -9 -9 -9 -9 -8 -8 -8 -8 -8 -8 -8 -8 -8 -8 -8 -8 -7 -7 -7 -7 -7 -6 -6 -6 -6 -6 -6
-5 -6 -6 -7 -7 -7 -8 -8 -8 -8 -9 -9 -9 -9 -9 -9 -9 -9 -9 -9 -9 -9 -8 -8 -8 -8 -8 -8 -8 -8 -8 -8 -7 -7 -7 -7 -7 -7 -6 -6 -6 -6 -6
-6 -6 -7 -7 -7 -8 -8 -8 -9 -9 -9 -9 -9 -9 -9 -9 -9 -9 -9 -9 -9 -9 -9 -9 -8 -8 -8 -8 -8 -8 -8 -8 -8 -7 -7 -7 -7 -7 -7 -6 -6 -6 -6
-6 -7 -7 -8 -8 -8 -8 -9 -9 -9 -9 -9 -9 -10 -10 -10 -10 -10 -10 -9 -9 -9 -9 -9 -9 -8 -8 -8 -8 -8 -8 -8 -8 -8 -7 -7 -7 -7 -7 -7 -6 -6 -6
-7 -7 -7 -8 -8 -8 -9 -9 -9 -9 -9 -9 -10 -10 -10 -10 -10 -10 -10 -10 -10 -9 -9 -9 -9 -9 -8 -8 -8 -8 -8 -8 -7 -7 -7 -7 -7 -7 -7 -7 -7 -7 -6
Wind_Speed
8 6 6 6 5 4 3 3 2 2 2 2 2 2 2 3 4 5 6 7 9 9 8 9 10 9 8 8 7 7 8 7 9 5 4 4 7 8 8 10 11 11 12
7 7 7 6 6 5 4 4 3 2 2 2 2 1 1 2 2 3 4 5 6 8 8 8 9 8 9 8 7 8 8 8 7 8 5 5 8 9 8 8 8 10 11
7 7 7 8 7 7 6 6 5 5 4 3 3 3 2 2 2 2 2 3 4 6 6 7 7 8 9 8 8 8 7 7 7 7 6 5 5 5 6 6 7 7 9
8 8 8 8 8 8 7 7 7 6 6 5 4 3 3 3 4 4 3 3 3 4 5 6 6 7 8 8 7 8 7 8 8 7 6 5 5 4 5 6 7 7 7
9 9 8 8 8 9 9 8 7 7 7 6 6 6 6 5 5 6 5 4 4 4 4 5 6 6 7 7 7 7 7 7 7 7 7 6 6 6 7 7 8 7 7
10 10 9 9 9 10 10 10 9 9 8 8 8 7 7 6 9 9 6 4 4 4 5 5 5 6 7 8 9 9 9 9 9 8 7 9 9 9 8 7 7 6 7
10 10 10 10 9 9 9 10 10 9 9 9 8 8 8 9 11 10 9 5 5 5 5 6 4 4 6 7 8 9 11 12 12 10 10 11 10 9 8 9 10 9 9
9 9 9 9 9 9 9 9 9 8 8 8 8 9 8 10 13 12 11 6 5 5 6 7 7 6 5 6 7 8 9 10 10 10 10 11 10 9 10 9 9 8 5
9 9 9 9 8 9 9 9 8 8 8 8 8 8 8 9 13 14 12 6 6 6 7 7 8 7 7 8 7 8 9 9 8 11 12 12 12 12 11 7 7 7 7
7 7 7 7 8 8 8 8 7 7 7 7 7 7 8 8 12 14 13 6 7 7 7 7 8 10 11 10 8 8 9 9 8 9 9 9 10 11 13 11 10 9 6
6 6 7 7 7 7 7 7 7 6 6 6 7 7 7 8 10 13 13 8 8 8 7 7 8 13 14 12 10 9 10 10 9 8 8 8 7 7 8 8 8 8 7
5 5 6 7 6 6 6 6 6 6 7 7 7 7 7 7 9 12 14 13 11 9 8 8 9 14 15 14 11 10 11 10 6 6 6 7 7 6 6 6 6 7 6
4 5 5 6 6 6 6 6 6 6 6 6 7 7 8 8 9 13 14 15 14 9 8 12 14 15 14 11 10 11 9 6 5 6 7 7 6 5 4 4 3 3 2
3 4 5 5 6 6 5 5 6 6 7 7 7 8 8 9 9 10 10 11 12 10 10 11 13 12 9 9 9 7 6 6 6 6 7 6 5 4 4 4 4 3 2
3 3 4 5 5 5 5 5 6 5 7 7 7 7 8 9 12 17 14 11 11 10 11 9 8 7 7 7 6 6 6 6 6 6 6 6 5 5 4 3 3 3 4
3 3 3 4 4 5 5 5 5 6 9 9 9 9 9 11 16 17 17 17 16 15 10 7 7 7 7 7 7 7 7 7 6 6 6 6 5 5 5 3 3 4 5
3 3 3 4 4 5 5 6 7 7 7 8 10 11 12 15 16 16 17 16 14 12 7 7 7 7 7 7 7 7 7 7 7 6 6 6 5 5 5 4 4 4 5
2 3 4 4 4 5 5 6 6 7 8 7 8 11 13 15 15 15 16 13 8 8 6 7 8 8 8 8 8 8 8 8 7 7 6 6 5 5 5 5 5 5 5
2 2 3 4 4 4 5 5 6 7 7 8 8 9 12 14 14 12 12 8 8 8 8 8 8 8 8 8 8 8 8 8 8 7 6 6 6 5 5 5 5 6 5
2 3 4 4 4 4 5 5 6 7 7 7 8 8 10 10 8 9 8 8 7 8 8 8 8 9 9 9 8 8 8 8 8 7 6 6 5 5 5 6 5 5 5
2 3 4 4 4 4 5 5 6 6 7 7 8 9 13 9 8 9 9 8 8 9 9 9 9 9 9 8 8 9 9 8 7 7 6 6 5 5 5 5 5 4 4
2 2 3 3 4 4 5 5 6 6 7 8 8 9 12 9 8 8 8 9 9 9 9 9 9 8 8 8 9 9 9 8 8 7 6 6 5 5 5 5 4 4 4
2 3 3 3 4 5 6 5 5 6 7 7 8 8 8 8 8 9 9 9 9 9 9 8 9 9 9 9 9 9 9 8 8 8 7 6 6 5 5 5 4 4 4
3 3 3 4 4 4 5 5 6 6 7 7 8 8 8 8 9 9 9 9 9 9 9 9 9 11 13 11 10 10 9 9 9 8 8 7 7 6 5 4 4 5 4
3 3 3 4 4 4 5 5 6 6 7 7 7 8 8 9 9 9 9 9 10 10 11 10 9 10 12 14 13 12 12 14 12 9 7 6 6 6 5 5 4 4 4
3 3 3 3 4 4 5 5 6 7 7 7 7 8 8 8 9 9 9 9 9 10 10 9 11 13 14 13 14 15 15 14 13 12 8 5 5 4 4 4 5 4 5
Wind_Direction
13 16 23 22 23 23 18 4 349 357 349 310 279 259 255 255 244 233 229 229 227 225 223 226 228 224 224 223 222 225 229 232 244 246 237 220 210 217 215 219 222 222 223
13 20 26 23 24 24 17 6 7 10 357 340 325 311 300 294 283 263 248 240 236 232 229 229 231 227 227 227 225 228 230 229 235 243 241 226 224 220 218 219 218 218 223
20 29 31 27 24 21 17 14 18 17 14 8 8 9 356 346 329 305 286 269 253 246 240 236 238 233 231 230 229 230 232 234 235 239 242 236 233 217 220 226 226 226 224
31 37 35 28 25 26 26 24 25 23 20 17 16 7 357 359 354 341 324 315 291 272 256 247 243 238 238 239 237 236 235 234 235 235 236 233 232 217 215 225 231 229 229
33 38 33 28 28 29 28 26 29 27 23 21 24 24 20 16 5 348 336 322 316 307 288 263 250 245 245 243 242 241 238 237 237 239 240 240 231 215 220 220 228 232 236
35 34 31 30 30 29 27 27 29 27 26 27 28 27 23 18 11 5 354 338 329 327 325 302 274 252 251 247 244 243 239 238 240 241 242 242 242 235 233 227 226 231 240
34 32 30 29 29 28 27 28 28 25 28 31 30 30 27 21 16 12 7 352 346 342 338 334 309 288 279 267 257 248 242 240 239 242 248 246 246 238 232 231 228 230 239
32 29 27 26 27 25 26 25 21 20 22 22 20 20 20 17 13 10 1 354 347 343 336 330 322 307 295 290 279 267 261 253 248 247 249 251 251 244 236 237 239 243 260
26 22 18 19 20 20 20 17 14 15 16 15 13 13 14 12 11 7 0 351 347 342 338 334 330 317 318 312 287 276 273 271 264 260 261 260 254 245 238 235 228 229 245
16 12 12 14 15 14 10 8 7 8 7 6 8 8 8 6 7 4 358 350 343 336 332 329 332 330 320 315 294 285 279 281 284 281 273 264 254 241 229 226 222 225 236
6 8 10 10 8 5 3 2 1 1 1 2 2 2 2 0 360 1 358 352 340 330 326 325 326 331 322 311 302 287 283 289 281 275 273 271 264 251 240 236 229 224 227
4 7 8 6 4 359 358 357 357 357 357 358 357 356 356 354 353 351 351 347 339 327 321 320 320 324 321 313 306 299 297 295 284 278 273 268 262 257 251 248 241 241 238
1 2 1 359 359 356 354 353 353 357 357 355 353 349 347 346 345 344 341 338 335 327 317 316 315 317 318 315 315 313 308 297 284 277 274 276 274 268 264 258 249 228 229
350 351 350 351 353 355 353 353 353 354 353 350 347 342 339 338 340 340 336 331 328 323 317 315 314 313 311 310 314 317 315 304 295 286 286 285 285 272 256 248 236 210 221
339 341 343 346 345 347 351 352 348 350 347 338 335 332 330 329 331 330 330 327 327 321 319 313 313 316 318 319 320 321 319 313 306 300 293 288 283 276 264 248 236 225 226
324 334 337 337 338 339 339 338 342 335 336 336 333 328 323 322 324 328 330 328 326 325 320 313 312 313 314 314 313 314 314 311 308 303 295 287 280 274 270 257 240 231 226
312 323 325 327 329 332 333 331 329 329 328 328 333 333 332 330 332 333 332 330 328 329 322 317 315 313 311 310 309 307 307 307 305 299 295 290 286 278 266 255 245 236 229
297 309 315 317 320 321 323 322 321 324 325 327 329 331 334 334 332 333 334 333 331 334 326 320 316 314 311 308 307 305 304 304 300 296 292 287 283 277 267 255 244 237 227
285 304 309 310 310 311 313 313 314 317 317 319 322 327 333 331 328 332 337 334 329 327 325 321 317 314 312 310 307 304 302 300 296 293 288 284 281 274 268 262 252 231 222
274 299 307 304 305 308 310 310 313 314 315 316 319 325 328 327 328 332 333 329 325 322 321 318 316 313 312 310 308 306 304 302 299 291 288 286 282 275 269 263 254 238 224
278 291 299 299 303 306 306 307 308 308 310 312 314 318 325 323 321 322 324 324 324 321 319 316 314 313 312 310 310 308 305 302 300 295 290 287 284 280 277 269 257 244 220
276 289 293 297 302 303 305 305 305 305 308 310 313 316 321 320 317 317 318 319 319 318 316 313 311 311 311 311 310 307 304 301 299 294 290 287 283 280 277 268 253 234 208
269 281 286 290 296 302 303 302 304 305 307 309 311 313 316 317 316 317 317 318 318 317 316 314 313 312 314 313 309 303 300 298 297 294 288 284 280 276 272 264 249 234 212
263 272 280 288 293 296 298 301 302 304 306 308 310 311 313 314 314 316 317 315 315 315 314 312 310 309 311 313 308 305 300 297 295 291 283 276 273 271 265 256 246 231 213
253 265 275 282 287 291 295 297 300 304 306 306 307 309 311 312 312 313 314 314 315 314 314 313 309 311 313 313 311 308 305 304 301 296 286 274 265 261 255 251 238 222 208
248 260 269 275 279 284 289 294 299 304 304 304 304 305 307 307 308 310 312 313 315 314 314 313 313 314 314 313 312 314 314 311 309 306 298 283 269 257 253 246 231 215 199
Height
1432 1431 1430 1430 1430 1430 1431 1432 1433 1434 1435 1437 1438 1439 1440 1441 1442 1444 1444 1446 1447 1448 1450 1452 1453 1456 1458 1459 1461 1463 1465 1467 1466 1467 1469 1470 1471 1472 1473 1473 1474 1474 1475
1433 1432 1431 1431 1430 1430 1430 1430 1431 1431 1433 1433 1434 1435 1435 1436 1437 1438 1439 1440 1441 1441 1443 1445 1446 1448 1450 1452 1454 1455 1456 1458 1459 1458 1460 1461 1462 1464 1465 1465 1466 1466 1466
1435 1433 1432 1431 1431 1430 1429 1429 1429 1430 1430 1431 1431 1431 1432 1432 1433 1433 1434 1434 1435 1436 1437 1438 1439 1441 1442 1444 1445 1446 1448 1450 1450 1451 1451 1453 1454 1455 1456 1456 1457 1457 1458
1437 1435 1433 1433 1432 1431 1430 1429 1429 1429 1429 1429 1429 1429 1429 1429 1429 1430 1430 1430 1430 1430 1431 1432 1432 1433 1434 1436 1437 1438 1440 1441 1442 1443 1443 1444 1445 1446 1447 1447 1447 1449 1450
1440 1437 1436 1435 1433 1432 1431 1430 1429 1429 1428 1427 1427 1427 1427 1427 1427 1426 1426 1426 1426 1425 1425 1425 1425 1426 1426 1428 1429 1430 1431 1432 1433 1434 1434 1435 1436 1437 1438 1438 1438 1440 1441
1443 1440 1439 1437 1435 1434 1432 1431 1430 1429 1427 1426 1425 1425 1424 1424 1423 1423 1422 1422 1421 1420 1419 1419 1419 1419 1420 1420 1421 1422 1423 1424 1425 1426 1426 1426 1427 1429 1430 1430 1430 1431 1431
1445 1443 1441 1439 1437 1436 1434 1432 1430 1428 1427 1426 1424 1423 1422 1421 1421 1420 1419 1418 1417 1416 1414 1414 1413 1413 1413 1413 1413 1414 1415 1416 1417 1418 1417 1417 1419 1420 1422 1421 1422 1422 1422
1448 1446 1443 1441 1439 1437 1435 1433 1431 1429 1427 1425 1424 1423 1421 1420 1418 1417 1416 1414 1413 1412 1411 1409 1408 1407 1407 1406 1406 1406 1406 1407 1408 1409 1409 1410 1411 1412 1413 1413 1413 1414 1414
1450 1448 1445 1443 1441 1438 1436 1434 1432 1430 1428 1426 1424 1422 1420 1419 1417 1415 1413 1411 1409 1408 1407 1405 1403 1401 1400 1400 1400 1399 1399 1399 1400 1401 1401 1401 1402 1403 1404 1404 1404 1405 1404
1452 1449 1447 1445 1442 1439 1437 1435 1433 1430 1428 1426 1424 1421 1419 1417 1415 1413 1411 1409 1407 1405 1403 1401 1399 1397 1395 1394 1394 1393 1392 1391 1392 1392 1392 1392 1393 1393 1394 1395 1395 1396 1396
1452 1450 1448 1445 1442 1440 1437 1435 1432 1430 1428 1425 1423 1420 1418 1416 1414 1411 1409 1407 1404 1402 1399 1397 1395 1392 1391 1389 1388 1387 1386 1385 1385 1384 1383 1383 1383 1384 1384 1385 1386 1387 1387
1453 1450 1448 1445 1442 1440 1437 1434 1432 1429 1427 1424 1421 1419 1416 1414 1411 1409 1406 1404 1401 1399 1396 1393 1391 1388 1386 1384 1383 1381 1380 1379 1378 1376 1376 1375 1375 1375 1376 1377 1377 1378 1379
1452 1450 1447 1445 1442 1439 1436 1434 1431 1428 1426 1423 1420 1418 1415 1412 1409 1407 1404 1401 1398 1396 1393 1390 1387 1385 1382 1379 1378 1376 1374 1373 1371 1370 1369 1368 1368 1368 1368 1369 1369 1370 1371
1451 1449 1447 1444 1441 1438 1436 1433 1430 1427 1425 1422 1419 1416 1413 1410 1407 1404 1401 1398 1395 1392 1389 1386 1384 1381 1378 1376 1373 1371 1370 1368 1366 1365 1363 1362 1361 1361 1361 1361 1362 1363 1364
1450 1448 1445 1443 1440 1437 1435 1432 1429 1426 1424 1421 1418 1415 1411 1408 1405 1403 1399 1395 1392 1389 1386 1383 1380 1377 1375 1372 1370 1368 1366 1364 1362 1360 1359 1357 1356 1356 1355 1356 1356 1357 1358
1448 1446 1443 1441 1438 1435 1433 1430 1427 1425 1422 1419 1416 1413 1409 1407 1403 1399 1396 1392 1389 1385 1382 1379 1376 1374 1371 1369 1366 1364 1362 1360 1358 1356 1355 1353 1352 1351 1351 1351 1351 1352 1353
1446 1443 1441 1438 1436 1433 1430 1427 1424 1422 1420 1416 1413 1410 1407 1403 1400 1396 1392 1389 1386 1383 1380 1376 1374 1371 1369 1366 1364 1361 1359 1357 1355 1353 1351 1349 1348 1347 1347 1346 1346 1347 1348
1443 1441 1439 1436 1433 1431 1428 1425 1422 1419 1416 1413 1410 1407 1404 1400 1397 1393 1389 1386 1383 1380 1377 1374 1371 1369 1366 1363 1360 1358 1355 1353 1351 1349 1347 1345 1344 1343 1343 1342 1342 1343 1343
1440 1438 1436 1433 1431 1428 1425 1422 1420 1417 1413 1410 1407 1404 1401 1397 1394 1391 1387 1384 1380 1378 1375 1372 1369 1366 1363 1360 1357 1354 1352 1349 1347 1345 1344 1342 1341 1340 1339 1338 1338 1339 1339
1436 1434 1432 1430 1427 1425 1422 1420 1417 1414 1411 1408 1405 1401 1398 1394 1391 1388 1385 1382 1378 1375 1372 1369 1366 1363 1360 1357 1354 1351 1348 1346 1344 1342 1340 1339 1337 1336 1335 1335 1335 1335 1336
1432 1431 1429 1427 1424 1422 1419 1417 1414 1411 1408 1405 1403 1400 1396 1393 1389 1386 1383 1379 1376 1373 1369 1366 1363 1360 1357 1354 1351 1348 1345 1343 1341 1339 1337 1336 1334 1333 1332 1332 1331 1332 1333
1429 1427 1425 1423 1421 1418 1416 1414 1411 1408 1405 1403 1400 1397 1394 1390 1387 1384 1380 1377 1373 1370 1367 1363 1360 1357 1354 1351 1348 1345 1342 1340 1338 1336 1334 1333 1331 1330 1329 1329 1329 1329 1330
1425 1423 1421 1419 1417 1415 1413 1410 1408 1405 1402 1400 1397 1394 1391 1388 1384 1381 1377 1374 1370 1367 1364 1360 1357 1354 1351 1348 1345 1342 1339 1337 1335 1333 1331 1330 1329 1327 1327 1326 1326 1326 1327
1421 1419 1417 1416 1414 1411 1409 1407 1404 1402 1399 1397 1394 1391 1388 1384 1381 1378 1374 1371 1367 1364 1361 1357 1354 1351 1348 1345 1342 1339 1336 1334 1332 1330 1329 1327 1326 1325 1324 1324 1324 1324 1325
1417 1415 1414 1412 1410 1408 1406 1404 1401 1399 1396 1393 1391 1388 1385 1382 1378 1375 1371 1368 1364 1361 1358 1355 1351 1348 1345 1342 1339 1336 1334 1331 1329 1327 1326 1324 1323 1322 1322 1321 1321 1322 1323
1413 1412 1410 1408 1407 1405 1403 1400 1398 1396 1393 1390 1388 1385 1382 1378 1375 1372 1369 1365 1362 1358 1355 1352 1349 1346 1342 1339 1336 1333 1331 1328 1327 1325 1324 1322 1321 1320 1320 1319 1319 1320 1321